Location: NJAA Observatory
(40.6819°N, 74.8979°W)
Time: 03:15:31
(UTC-04:00)

Vanguard 1 - All Passes

Search period start: 18 April 2015 00:00
Search period end: 28 April 2015 00:00
Orbit: 652 x 3833 km, 34.2° (Epoch: 17 April)

Date Brightness Start Highest point End Pass type
(mag) Time Alt. Az. Time Alt. Az. Time Alt. Az.
18 Apr - 06:25:38 10° S 06:37:01 21° SSE 06:45:48 10° ESE daylight
18 Apr - 08:46:21 10° SW 09:00:01 41° SSE 09:07:53 10° E daylight
18 Apr - 11:11:02 10° WSW 11:21:22 54° S 11:27:14 10° ESE daylight
18 Apr - 13:35:13 10° W 13:41:18 33° SSW 13:45:35 10° SE daylight
19 Apr - 06:44:52 10° SSW 06:58:41 27° SSE 07:08:14 10° E daylight
19 Apr - 09:07:29 10° SW 09:21:27 48° SSE 09:29:13 10° E daylight
19 Apr - 11:32:41 10° WSW 11:42:37 54° S 11:48:19 10° ESE daylight
19 Apr - 13:56:58 10° W 14:02:17 26° SSW 14:06:13 10° SSE daylight
20 Apr - 04:49:33 10° SSE 04:56:08 13° SE 05:03:20 10° ESE visible
20 Apr - 07:04:51 10° SSW 07:20:18 34° SSE 07:30:09 10° E daylight
20 Apr - 09:28:53 10° WSW 09:42:52 53° S 09:50:27 10° E daylight
20 Apr - 11:54:23 10° W 12:03:50 51° SSW 12:09:20 10° ESE daylight
20 Apr - 14:18:57 10° WSW 14:23:11 19° SSW 14:26:29 10° SSE daylight
21 Apr - 05:06:09 10° S 05:17:55 19° SSE 05:28:04 10° ESE visible
21 Apr - 07:25:22 10° SW 07:41:51 41° SSE 07:51:45 10° E daylight
21 Apr - 09:50:29 10° WSW 10:04:14 58° S 10:11:37 10° E daylight
21 Apr - 12:16:07 10° W 12:24:58 45° SSW 12:30:17 10° SE daylight
21 Apr - 14:41:39 10° WSW 14:44:01 12° SW 14:45:56 10° SSW daylight
22 Apr - 05:24:43 10° SSW 05:39:36 26° SSE 05:51:01 10° E visible
22 Apr - 07:46:18 10° SW 08:03:23 48° SSE 08:13:11 10° E daylight
22 Apr - 10:12:13 10° WSW 10:25:36 60° S 10:32:45 10° ESE daylight
22 Apr - 12:37:53 10° W 12:46:01 38° SSW 12:51:05 10° SE daylight
23 Apr - 03:35:01 10° SE 03:36:25 10° SE 03:40:19 10° SE visible
23 Apr - 05:44:13 10° SSW 06:01:15 32° SSE 06:13:14 10° E visible
23 Apr - 08:07:34 10° SW 08:24:53 54° SSE 08:34:29 10° E daylight
23 Apr - 10:34:01 10° W 10:46:55 59° S 10:53:50 10° ESE daylight
23 Apr - 12:59:44 10° W 13:06:58 30° SSW 13:11:41 10° SSE daylight
24 Apr - 03:47:47 10° S 03:58:12 16° SE 04:08:49 10° ESE visible
24 Apr - 06:04:23 10° SSW 06:22:52 39° SSE 06:35:04 10° E daylight
24 Apr - 08:29:05 10° WSW 08:46:22 59° S 08:55:44 10° E daylight
24 Apr - 10:55:52 10° W 11:08:09 56° SSW 11:14:51 10° ESE daylight
24 Apr - 13:21:48 10° W 13:27:48 22° SW 13:31:58 10° SSE daylight
25 Apr - 04:05:20 10° S 04:19:53 23° SE 04:32:43 10° E visible
25 Apr - 06:25:01 10° SW 06:44:27 46° SSE 06:56:38 10° E daylight
25 Apr - 08:50:47 10° WSW 09:07:50 63° S 09:16:55 10° E daylight
25 Apr - 11:17:43 10° W 11:29:20 50° SSW 11:35:46 10° SE daylight
25 Apr - 13:44:21 10° WSW 13:48:32 15° SW 13:51:39 10° S daylight
26 Apr - 04:24:14 10° SSW 04:41:30 29° SSE 04:55:27 10° E visible
26 Apr - 06:46:01 10° SW 07:06:01 53° SSE 07:18:04 10° E daylight
26 Apr - 09:12:37 10° WSW 09:29:16 65° S 09:38:04 10° ESE daylight
26 Apr - 11:39:37 10° W 11:50:23 43° SSW 11:56:34 10° SE daylight
27 Apr - 02:31:51 10° SSE 02:38:09 12° SE 02:46:47 10° ESE visible
27 Apr - 04:43:55 10° SSW 05:03:05 37° SSE 05:17:35 10° E visible
27 Apr - 07:07:20 10° WSW 07:27:36 59° SSE 07:39:24 10° E daylight
27 Apr - 09:34:32 10° W 09:50:39 64° S 09:59:10 10° ESE daylight
27 Apr - 12:01:35 10° W 12:11:20 34° SSW 12:17:09 10° SSE daylight
